Location: Chester
(43.2628°N, 72.5951°W)
Time: 17:46:47
(UTC-05:00)

ISS - Pass Details

Date: 01 February 2021
Orbit: 417 x 422 km, 51.6° (Epoch: 08 March)

Event Time Altitude Azimuth Distance (km) Brightness Sun altitude
Rises 19:06:49 0° 302° (WNW) 2,376 0.9 -22.7°
Reaches altitude 10° 19:08:56 10° 303° (WNW) 1,509 -0.2 -23.1°
Enters shadow 19:11:11 39° 306° (NW) 648 -2.5 -23.5°
